Погода в Новом Чиркее

Россия / Республика Дагестан     43°09′39″N   47°03′13″E
темп.,
°C
ветер,
м/с
пор.,
м/с
влажн.,
%
обл.,
%
осадки,
мм/ч
давл.,
гПа
погр.,
м
23 апреля, пт
пт2300:00+13зсз477288 0.0 1020327
03:00+12зсз71176100 0.0 1021581
06:00+11зсз61092100 0.2 1023766
09:00+11зсз61087100 0.8 1024792
12:00+14зсз7117714 0.0 10231015
15:00+20зсз79434 0.0 10222020
18:00+17сз46520 0.0 1022294
21:00+13ююв226668 0.0 102215
24 апреля, сб
сб2400:00+12юв22620 0.0 102114
03:00+12вюв45645 0.0 101874
06:00+12вюв356942 0.0 1018105
09:00+19вюв354526 0.0 1018970
12:00+21в64405 0.0 10171384
15:00+20в774381 0.0 1017884
18:00+15в586156 0.0 1019300
21:00+12в357180 0.0 1020115
25 апреля, вс
вс2500:00+12вюв34726 0.0 102080
03:00+11вюв1271100 0.0 102016
06:00+12сз22715 0.0 102173
09:00+17вюв244943 0.0 1020702
12:00+21в663672 0.0 10191353
15:00+19в66405 0.0 10181151
18:00+15в575619 0.0 1016494
21:00+11в359023 0.0 1017162
26 апреля, пн
пн2600:00+10всв2294100 0.0 101450
03:00+9зсз4697100 0.0 1013220
06:00+11зсз5886100 0.0 1014396
09:00+14сз5673100 0.0 1014742
12:00+18сз3354100 0.0 1011981
15:00+21ссз4445100 0.0 10111534
18:00+16ссв3657100 0.0 1011194
21:00+14з335875 0.0 101260
27 апреля, вт
вт2700:00+15зсз81158100 0.0 1014609
03:00+11сз4791100 0.2 1015379
06:00+12зсз3491100 0.4 1016295
09:00+12зсз3587100 0.8 1018438
12:00+13сз3482100 0.1 1018572
15:00+12сз3483100 0.4 1018404
18:00+12зсз3488100 0.3 1020266
21:00+11зсз1289100 0.3 102188